TimeMST,TemperatureF,Dew PointF,Humidity,Sea Level PressureIn,VisibilityMPH,Wind Direction,Wind SpeedMPH,Gust SpeedMPH,PrecipitationIn,Events,Conditions,WindDirDegrees,DateUTC
12:05 AM,37.4,12.2,36,30.08,10.0,SW,12.7,-,N/A,,Clear,220,2013-01-19 07:05:00
12:25 AM,37.4,12.2,36,30.07,10.0,SW,10.4,-,N/A,,Clear,230,2013-01-19 07:25:00
12:45 AM,37.4,12.2,36,30.07,10.0,SW,9.2,-,N/A,,Clear,220,2013-01-19 07:45:00
1:05 AM,39.2,12.2,33,30.07,10.0,SW,9.2,-,N/A,,Clear,220,2013-01-19 08:05:00
1:25 AM,35.6,12.2,38,30.08,10.0,WSW,11.5,-,N/A,,Clear,240,2013-01-19 08:25:00
1:45 AM,33.8,15.8,48,30.10,10.0,WSW,12.7,-,N/A,,Clear,250,2013-01-19 08:45:00
2:05 AM,37.4,12.2,36,30.10,10.0,West,9.2,-,N/A,,Clear,270,2013-01-19 09:05:00
2:25 AM,37.4,14.0,38,30.11,10.0,WSW,10.4,-,N/A,,Clear,250,2013-01-19 09:25:00
2:45 AM,37.4,14.0,38,30.10,10.0,West,11.5,-,N/A,,Clear,270,2013-01-19 09:45:00
3:05 AM,35.6,15.8,44,30.10,10.0,WSW,13.8,-,N/A,,Clear,250,2013-01-19 10:05:00
3:25 AM,41.0,14.0,33,30.10,10.0,West,13.8,-,N/A,,Clear,270,2013-01-19 10:25:00
3:44 AM,35.6,17.6,48,30.12,10.0,West,11.5,-,N/A,,Clear,270,2013-01-19 10:44:00
4:05 AM,33.8,14.0,44,30.12,10.0,WSW,10.4,-,N/A,,Clear,250,2013-01-19 11:05:00
4:25 AM,35.6,12.2,38,30.12,10.0,WSW,10.4,-,N/A,,Clear,240,2013-01-19 11:25:00
4:46 AM,35.6,12.2,38,30.12,10.0,SW,5.8,-,N/A,,Clear,230,2013-01-19 11:46:00
5:06 AM,37.4,10.4,33,30.13,10.0,WSW,10.4,-,N/A,,Clear,240,2013-01-19 12:06:00
5:25 AM,39.2,8.6,28,30.14,10.0,West,6.9,-,N/A,,Clear,260,2013-01-19 12:25:00
5:46 AM,35.6,10.4,35,30.16,10.0,NNW,3.5,-,N/A,,Clear,330,2013-01-19 12:46:00
6:06 AM,33.8,14.0,44,30.16,10.0,Calm,Calm,-,N/A,,Clear,0,2013-01-19 13:06:00
6:26 AM,37.4,10.4,33,30.17,10.0,West,4.6,-,N/A,,Clear,270,2013-01-19 13:26:00
6:46 AM,41.0,8.6,26,30.18,10.0,West,4.6,-,N/A,,Clear,260,2013-01-19 13:46:00
6:53 AM,39.2,8.6,28,30.19,10.0,WSW,4.6,-,N/A,,Clear,240,2013-01-19 13:53:00
7:50 AM,32.0,15.8,51,30.21,50.0,Calm,Calm,-,N/A,,Clear,0,2013-01-19 14:50:00
10:47 AM,50.0,10.4,20,30.25,50.0,East,4.6,-,N/A,,Clear,100,2013-01-19 17:47:00
2:45 PM,57.2,10.4,16,30.16,50.0,SSE,5.8,-,N/A,,Clear,150,2013-01-19 21:45:00
4:48 PM,46.4,21.2,37,30.16,50.0,ESE,9.2,-,N/A,,Partly Cloudy,120,2013-01-19 23:48:00
5:50 PM,44.6,19.4,37,30.18,50.0,Calm,Calm,-,N/A,,Partly Cloudy,0,2013-01-20 00:50:00
6:54 PM,44.6,10.4,25,30.17,20.0,West,11.5,-,N/A,,Partly Cloudy,270,2013-01-20 01:54:00
7:50 PM,44.6,6.8,21,30.18,20.0,SSW,5.8,-,N/A,,Partly Cloudy,210,2013-01-20 02:50:00
8:26 PM,37.4,17.6,45,30.19,10.0,SSW,6.9,-,N/A,,Clear,200,2013-01-20 03:26:00
8:45 PM,35.6,17.6,48,30.18,10.0,South,5.8,-,N/A,,Clear,180,2013-01-20 03:45:00
9:05 PM,35.6,17.6,48,30.18,10.0,South,3.5,-,N/A,,Clear,190,2013-01-20 04:05:00
9:24 PM,35.6,17.6,48,30.17,10.0,SSW,3.5,-,N/A,,Clear,210,2013-01-20 04:24:00
9:45 PM,35.6,17.6,48,30.17,10.0,SW,4.6,-,N/A,,Clear,220,2013-01-20 04:45:00
10:05 PM,35.6,17.6,48,30.17,10.0,SSW,5.8,-,N/A,,Clear,200,2013-01-20 05:05:00
10:25 PM,33.8,17.6,52,30.17,10.0,SSW,5.8,-,N/A,,Clear,200,2013-01-20 05:25:00
10:45 PM,32.0,19.4,60,30.17,10.0,South,3.5,-,N/A,,Clear,190,2013-01-20 05:45:00
11:05 PM,32.0,19.4,60,30.16,10.0,South,6.9,-,N/A,,Clear,180,2013-01-20 06:05:00
11:25 PM,32.0,19.4,60,30.15,10.0,SSW,8.1,-,N/A,,Clear,200,2013-01-20 06:25:00
11:45 PM,32.0,19.4,60,30.15,10.0,SSW,4.6,-,N/A,,Clear,210,2013-01-20 06:45:00